Location: Jackson Park
(37.2862°N, 79.9123°W)
Time: 20:58:50
(UTC+00:00)

Transit 4A - Pass Details

Date: 17 May 2026
Orbit: 860 x 980 km, 66.8° (Epoch: 9 June)

Event Time Altitude Azimuth Distance (km) Brightness Sun altitude
Rises 19:39:33 0° 347° (NNW) 3,684 11.0 54.1°
Reaches altitude 10° 19:44:18 10° 18° (NNE) 2,737 10.2 53.2°
Maximum altitude 19:46:30 12° 38° (NE) 2,605 10.1 52.8°
Drops below altitude 10° 19:48:43 10° 59° (ENE) 2,730 10.1 52.4°
Sets 19:53:24 0° 90° (E) 3,660 10.6 51.5°
